{"data":{"norad_id":47904,"intl_designator":"2021-021AW","name":"STARLINK-2364","alt_names":[],"object_type":"PAYLOAD","status":"ACTIVE","operator":null,"country":"US","launch_date":"2021-03-14","launch_site_code":"AFETR","launch_vehicle":null,"mission":null,"orbit_class":"UNKNOWN","rcs_meters":null,"size_class":null,"mass_kg":null,"dimensions":null,"purposes":["comms"],"wikipedia_slug":null,"has_3d_model":false,"image_url":null,"decayed_at":null,"tle_current":{"epoch":"2026-09-20T04:31:39.887904Z","epoch_age_seconds":56065,"freshness":"FRESH","line1":"1 47904U 21021AW  26263.18865611 -.00002131  00000+0 -56922-4 0  9991","line2":"2 47904  53.1606  70.0947 0001189  91.3987 268.7151 15.31698228306217","mean_motion":15.31698228,"eccentricity":0.0001189,"inclination_deg":53.1606,"raan_deg":70.0947,"arg_perigee_deg":91.3987,"mean_anomaly_deg":268.7151,"bstar":-5.6922e-5,"rev_number":30621,"period_min":94.013296723615,"perigee_km":469.93094536774,"apogee_km":471.55960957332,"semimajor_km":6848.8822774705,"source":"CELESTRAK","updated_at":"2026-09-20T09:00:38.757278Z"}}}